This is the latest recevied weather packets stored in our database for station/object N1HQ. If no packets are shown the sender has not sent any weather packets the latest 10 day(s).
| Time | Temp. | Humidity | Pressure | Rain* | Wind** | Luminosity | Snow |
|---|---|---|---|---|---|---|---|
| 1777410678 | 26.11° C | 82% | 1016 hPa | 0 mm | - | - | - |
| 1777410388 | 26.11° C | 82% | 1016.1 hPa | 0 mm | - | - | - |
| 1777410148 | 26.11° C | 80% | 1016.1 hPa | 0 mm | - | - | - |
| 1777409856 | 27.22° C | 77% | 1016.2 hPa | 0 mm | - | - | - |
| 1777409583 | 27.22° C | 80% | 1016.2 hPa | 0 mm | - | - | - |
| 1777409013 | 27.22° C | 78% | 1015.9 hPa | 0 mm | - | - | - |
| 1777408748 | 27.78° C | 75% | 1016 hPa | 0 mm | - | - | - |
| 1777408505 | 27.78° C | 73% | 1016.1 hPa | 0 mm | - | - | - |
| 1777408205 | 27.78° C | 75% | 1016.1 hPa | 0 mm | - | - | - |
| 1777407963 | 27.78° C | 74% | 1016.3 hPa | 0 mm | - | - | - |
| 1777407683 | 27.78° C | 75% | 1016.4 hPa | 0 mm | - | - | - |
| 1777407403 | 27.78° C | 74% | 1016.4 hPa | 0 mm | - | - | - |
| 1777407105 | 27.78° C | 75% | 1016.5 hPa | 0 mm | - | - | - |
| 1777406828 | 27.78° C | 77% | 1016.6 hPa | 0 mm | - | - | - |
| 1777406530 | 28.33° C | 75% | 1016.7 hPa | 0 mm | - | - | - |
| 1777406283 | 27.78° C | 76% | 1016.8 hPa | 0.25 mm | - | - | - |
| 1777406033 | 27.78° C | 76% | 1016.8 hPa | 0.25 mm | - | - | - |
| 1777405745 | 27.78° C | 76% | 1017 hPa | 0.25 mm | - | - | - |
| 1777405502 | 27.78° C | 75% | 1017 hPa | 0.25 mm | - | - | - |
| 1777405205 | 27.78° C | 75% | 1017.1 hPa | 0.25 mm | - | - | - |
| 1777404928 | 27.78° C | 75% | 1017.2 hPa | 0.25 mm | - | - | - |
| 1777404638 | 27.78° C | 75% | 1017.2 hPa | 0.25 mm | - | - | - |
| 1777404374 | 27.78° C | 76% | 1017.3 hPa | 0.25 mm | - | - | - |
| 1777404083 | 27.78° C | 77% | 1017.4 hPa | 0.25 mm | - | - | - |
| 1777403783 | 28.33° C | 76% | 1017.5 hPa | 0.25 mm | - | - | - |
* Rain latest hour (hover to see other rain measurements)
** Current wind speed in m/s (hover to see current wind gust speed)